Location: Unspecified
(0.0000°N, 0.0000°E)
Time: 21:28:48
(UTC+00:00)

Altair - Visible Passes

Search period start: 01 October 2020 00:00
Search period end: 11 October 2020 00:00
Orbit: 1501 x 1682 km, 47.2° (Epoch: 01 October)

Date Brightness Start Highest point End Pass type
(mag) Time Alt. Az. Time Alt. Az. Time Alt. Az.
01 Oct 8.6 19:32:18 10° N 19:38:36 25° NNE 19:38:36 25° NNE visible
01 Oct 9.5 21:35:10 10° NW 21:36:40 16° NW 21:36:40 16° NW visible
02 Oct 8.5 19:07:29 10° N 19:14:57 23° NE 19:15:29 23° NE visible
02 Oct 9.0 21:09:53 10° NW 21:13:34 26° NW 21:13:34 26° NW visible
03 Oct 8.6 18:42:46 10° N 18:49:41 21° NE 18:52:30 18° ENE visible
03 Oct 8.3 20:44:38 10° NW 20:50:36 42° NW 20:50:36 42° NW visible
04 Oct 8.8 18:18:08 10° N 18:24:23 18° NE 18:29:43 12° E visible
04 Oct 7.6 20:19:24 10° NW 20:27:49 68° NW 20:27:49 68° NW visible
05 Oct 7.4 19:54:13 10° NW 20:04:17 80° NE 20:05:13 74° ESE visible
05 Oct 9.7 22:02:13 10° W 22:03:21 13° W 22:03:21 13° W visible
06 Oct 7.4 19:29:03 10° NNW 19:39:05 73° NE 19:42:50 43° ESE visible
06 Oct 9.3 21:36:22 10° W 21:40:59 21° WSW 21:40:59 21° WSW visible
07 Oct 7.5 19:03:55 10° NNW 19:13:54 65° NE 19:20:43 22° SE visible
07 Oct 8.9 21:10:38 10° WNW 21:18:33 27° SW 21:18:53 27° SW visible
08 Oct 7.7 18:38:49 10° NNW 18:48:42 59° NE 18:58:17 10° SE visible
08 Oct 8.8 20:44:58 10° WNW 20:53:20 31° SW 20:57:05 24° SSW visible
09 Oct 7.8 18:13:45 10° NNW 18:23:29 52° NE 18:32:58 10° SE visible
09 Oct 8.7 20:19:22 10° WNW 20:28:07 35° SW 20:35:37 14° S visible
10 Oct 9.6 05:01:42 10° S 05:07:54 20° SE 05:14:09 10° E visible
10 Oct 8.6 19:53:50 10° WNW 20:02:55 39° SW 20:11:47 10° SSE visible
